Location: Saluda
(35.2377°N, 82.3468°W)
Time: 02:05:53
(UTC+00:00)

SR - Pass Details

Date: 08 October 2022
Orbit: 577 x 874 km, 66.7° (Epoch: 06 December)

Event Time Altitude Azimuth Distance (km) Brightness Sun altitude
Rises 00:42:29 0° 205° (SSW) 3,392 ? -20.7°
Reaches altitude 10° 00:44:54 10° 206° (SSW) 2,484 ? -21.2°
Maximum altitude 00:50:44 89° 296° (WNW) 878 ? -22.4°
Drops below altitude 10° 00:56:39 10° 27° (NNE) 2,520 ? -23.6°
Enters shadow 00:57:23 - 27° (NNE) 2,796 ? -23.8°
